| time (UTC) | temp F | wind direction | speed knots | gust knots | rain 1hr in | rain 24hr in | rain mn in | humidity % | barometer mb |
| 20260509233545 | 49 | 0 | 0.0 | 0.0 | 0.00 | 0.00 | 0.00 | 94 | 1016.2 |
| 20260509233100 | 49 | 0 | 0.0 | 0.0 | 0.00 | 0.00 | 0.00 | 93 | 1016.2 |
| 20260509232542 | 49 | 0 | 0.0 | 0.0 | 0.00 | 0.00 | 0.00 | 93 | 1016.3 |
| 20260509232042 | 48 | 0 | 0.0 | 0.0 | 0.00 | 0.00 | 0.00 | 93 | 1016.3 |
| 20260509231553 | 48 | 0 | 0.0 | 0.0 | 0.00 | 0.00 | 0.00 | 93 | 1016.3 |
| 20260509231041 | 48 | 0 | 0.0 | 0.0 | 0.00 | 0.00 | 0.00 | 93 | 1016.4 |
| 20260509230545 | 48 | 0 | 0.0 | 0.0 | 0.00 | 0.00 | 0.00 | 93 | 1016.4 |
| 20260509230054 | 49 | 0 | 0.0 | 0.0 | 0.00 | 0.00 | 0.00 | 93 | 1016.4 |
| 20260509225542 | 49 | 0 | 0.0 | 0.0 | 0.00 | 0.00 | 0.00 | 93 | 1016.4 |
| 20260509225041 | 49 | 0 | 0.0 | 0.0 | 0.00 | 0.00 | 0.00 | 92 | 1016.5 |
| 20260509224549 | 49 | 0 | 0.0 | 0.0 | 0.00 | 0.00 | 0.00 | 92 | 1016.4 |
| 20260509224046 | 49 | 0 | 0.0 | 0.0 | 0.00 | 0.00 | 0.00 | 92 | 1016.5 |
| 20260509223543 | 49 | 0 | 0.0 | 0.0 | 0.00 | 0.00 | 0.00 | 92 | 1016.5 |
| 20260509223057 | 49 | 0 | 0.0 | 0.0 | 0.00 | 0.00 | 0.00 | 92 | 1016.6 |
| 20260509222541 | 49 | 0 | 0.0 | 0.0 | 0.00 | 0.00 | 0.00 | 92 | 1016.6 |
| 20260509222042 | 50 | 0 | 0.0 | 0.0 | 0.00 | 0.00 | 0.00 | 92 | 1016.7 |
| 20260509221549 | 50 | 0 | 0.0 | 0.0 | 0.00 | 0.00 | 0.00 | 92 | 1016.7 |
| 20260509221043 | 50 | 0 | 0.0 | 0.0 | 0.00 | 0.00 | 0.00 | 91 | 1016.6 |
| 20260509220546 | 50 | 0 | 0.0 | 0.0 | 0.00 | 0.00 | 0.00 | 91 | 1016.7 |
| 20260509220051 | 50 | 0 | 0.0 | 0.0 | 0.00 | 0.00 | 0.00 | 91 | 1016.6 |
| 20260509215542 | 50 | 0 | 0.0 | 0.0 | 0.00 | 0.00 | 0.00 | 91 | 1016.6 |
| 20260509215042 | 50 | 0 | 0.0 | 0.0 | 0.00 | 0.00 | 0.00 | 91 | 1016.6 |
| 20260509214554 | 50 | 0 | 0.0 | 0.0 | 0.00 | 0.00 | 0.00 | 91 | 1016.7 |
| 20260509214042 | 51 | 0 | 0.0 | 0.0 | 0.00 | 0.00 | 0.00 | 90 | 1016.7 |
| 20260509213544 | 51 | 0 | 0.0 | 0.0 | 0.00 | 0.00 | 0.00 | 90 | 1016.6 |
| 20260509213050 | 51 | 0 | 0.0 | 0.0 | 0.00 | 0.00 | 0.00 | 90 | 1016.7 |
| 20260509212543 | 51 | 0 | 0.0 | 0.0 | 0.00 | 0.00 | 0.00 | 90 | 1016.8 |
| 20260509212042 | 51 | 0 | 0.0 | 0.0 | 0.00 | 0.00 | 0.00 | 90 | 1016.9 |
| 20260509211550 | 51 | 0 | 0.0 | 0.0 | 0.00 | 0.00 | 0.00 | 89 | 1017.0 |
| 20260509211045 | 51 | 0 | 0.0 | 0.0 | 0.00 | 0.00 | 0.00 | 89 | 1016.8 |
| 20260509210546 | 52 | 0 | 0.0 | 0.0 | 0.00 | 0.00 | 0.00 | 89 | 1016.8 |
| 20260509210053 | 52 | 0 | 0.0 | 0.0 | 0.00 | 0.00 | 0.00 | 88 | 1016.7 |
| 20260509205543 | 52 | 0 | 0.0 | 0.0 | 0.00 | 0.00 | 0.00 | 88 | 1016.8 |
| 20260509205042 | 52 | 0 | 0.0 | 0.0 | 0.00 | 0.00 | 0.00 | 87 | 1016.8 |
| 20260509204555 | 53 | 0 | 0.0 | 0.0 | 0.00 | 0.00 | 0.00 | 87 | 1016.7 |
| 20260509204043 | 53 | 0 | 0.0 | 0.0 | 0.00 | 0.00 | 0.00 | 86 | 1016.7 |
| 20260509203545 | 53 | 0 | 0.0 | 0.0 | 0.00 | 0.00 | 0.00 | 86 | 1016.9 |
| 20260509203056 | 53 | 0 | 0.0 | 0.0 | 0.00 | 0.00 | 0.00 | 86 | 1016.9 |
| 20260509202542 | 54 | 0 | 0.0 | 0.0 | 0.00 | 0.00 | 0.00 | 85 | 1016.8 |
| 20260509202045 | 54 | 0 | 0.0 | 0.0 | 0.00 | 0.00 | 0.00 | 86 | 1017.0 |
| 20260509201559 | 54 | 0 | 0.0 | 0.0 | 0.00 | 0.00 | 0.00 | 86 | 1017.0 |
| 20260509201042 | 54 | 0 | 0.0 | 0.0 | 0.00 | 0.00 | 0.00 | 85 | 1017.1 |
| 20260509200544 | 54 | 0 | 0.0 | 0.0 | 0.00 | 0.00 | 0.00 | 84 | 1016.9 |
| 20260509200104 | 54 | 0 | 0.0 | 0.0 | 0.00 | 0.00 | 0.00 | 84 | 1017.0 |
| 20260509195543 | 55 | 0 | 0.0 | 0.0 | 0.00 | 0.00 | 0.00 | 83 | 1016.9 |
| 20260509195042 | 55 | 0 | 0.0 | 0.0 | 0.00 | 0.00 | 0.00 | 83 | 1016.8 |
| 20260509194549 | 55 | 0 | 0.0 | 0.0 | 0.00 | 0.00 | 0.00 | 81 | 1016.8 |
| 20260509194042 | 55 | 0 | 0.0 | 0.0 | 0.00 | 0.00 | 0.00 | 81 | 1016.7 |
| 20260509193545 | 55 | 0 | 0.0 | 0.0 | 0.00 | 0.00 | 0.00 | 80 | 1016.8 |
| 20260509193110 | 56 | 0 | 0.0 | 0.0 | 0.00 | 0.00 | 0.00 | 80 | 1016.6 |
| 20260509192548 | 56 | 0 | 0.0 | 0.0 | 0.00 | 0.00 | 0.00 | 79 | 1016.7 |
| 20260509192041 | 57 | 0 | 0.0 | 0.0 | 0.00 | 0.00 | 0.00 | 78 | 1016.7 |
| 20260509191551 | 57 | 0 | 0.0 | 0.0 | 0.00 | 0.00 | 0.00 | 77 | 1016.7 |
| 20260509191043 | 57 | 0 | 0.0 | 0.0 | 0.00 | 0.00 | 0.00 | 76 | 1016.7 |
| 20260509190544 | 58 | 0 | 0.0 | 0.0 | 0.00 | 0.00 | 0.00 | 75 | 1016.5 |
| 20260509190053 | 58 | 0 | 0.0 | 0.0 | 0.00 | 0.00 | 0.00 | 74 | 1016.5 |
| 20260509185542 | 59 | 0 | 0.0 | 0.0 | 0.00 | 0.00 | 0.00 | 72 | 1016.5 |
| 20260509185043 | 59 | 0 | 0.0 | 0.0 | 0.00 | 0.00 | 0.00 | 72 | 1016.5 |
| 20260509184601 | 59 | 0 | 0.0 | 0.0 | 0.00 | 0.00 | 0.00 | 71 | 1016.5 |
| 20260509184044 | 60 | 0 | 0.0 | 0.0 | 0.00 | 0.00 | 0.00 | 70 | 1016.4 |
| 20260509183542 | 60 | 0 | 0.0 | 0.0 | 0.00 | 0.00 | 0.00 | 69 | 1016.3 |
| 20260509183056 | 61 | 0 | 0.0 | 0.0 | 0.00 | 0.00 | 0.00 | 68 | 1016.2 |
| 20260509182547 | 61 | 0 | 0.0 | 0.0 | 0.00 | 0.00 | 0.00 | 67 | 1016.3 |
| 20260509182043 | 61 | 0 | 0.0 | 0.0 | 0.00 | 0.00 | 0.00 | 66 | 1016.3 |
| 20260509181549 | 62 | 0 | 0.0 | 1.7 | 0.00 | 0.00 | 0.00 | 65 | 1016.2 |
| 20260509181042 | 62 | 0 | 0.0 | 1.7 | 0.00 | 0.00 | 0.00 | 64 | 1016.3 |
| 20260509180543 | 62 | 32 | 0.0 | 2.6 | 0.00 | 0.00 | 0.00 | 63 | 1016.3 |
| 20260509180051 | 63 | 32 | 0.0 | 2.6 | 0.00 | 0.00 | 0.00 | 63 | 1016.2 |
| 20260509175542 | 63 | 0 | 0.0 | 0.9 | 0.00 | 0.00 | 0.00 | 63 | 1016.2 |
| 20260509175042 | 63 | 0 | 0.0 | 3.5 | 0.00 | 0.00 | 0.00 | 62 | 1016.1 |
| 20260509174549 | 63 | 0 | 0.0 | 3.5 | 0.00 | 0.00 | 0.00 | 61 | 1016.2 |
| 20260509174041 | 64 | 0 | 0.9 | 4.3 | 0.00 | 0.00 | 0.00 | 61 | 1016.2 |
| 20260509173544 | 64 | 0 | 0.0 | 4.3 | 0.00 | 0.00 | 0.00 | 61 | 1016.2 |
| 20260509173105 | 64 | 0 | 0.0 | 4.3 | 0.00 | 0.00 | 0.00 | 61 | 1016.3 |
| 20260509172542 | 64 | 0 | 0.0 | 4.3 | 0.00 | 0.00 | 0.00 | 60 | 1016.3 |
| 20260509172042 | 64 | 0 | 0.0 | 4.3 | 0.00 | 0.00 | 0.00 | 60 | 1016.3 |
| 20260509171608 | 64 | 32 | 0.0 | 4.3 | 0.00 | 0.00 | 0.00 | 59 | 1016.4 |
| 20260509171044 | 64 | 0 | 0.0 | 4.3 | 0.00 | 0.00 | 0.00 | 58 | 1016.3 |
| 20260509170544 | 65 | 0 | 0.0 | 5.2 | 0.00 | 0.00 | 0.00 | 58 | 1016.3 |
| 20260509170051 | 65 | 34 | 0.9 | 6.1 | 0.00 | 0.00 | 0.00 | 58 | 1016.3 |
| 20260509165542 | 65 | 0 | 0.9 | 6.1 | 0.00 | 0.00 | 0.00 | 58 | 1016.3 |
| 20260509165041 | 65 | 51 | 0.0 | 4.3 | 0.00 | 0.00 | 0.00 | 58 | 1016.3 |
| 20260509164553 | 65 | 23 | 0.0 | 3.5 | 0.00 | 0.00 | 0.00 | 58 | 1016.3 |
| 20260509164042 | 65 | 0 | 0.0 | 3.5 | 0.00 | 0.00 | 0.00 | 58 | 1016.3 |
| 20260509163542 | 64 | 22 | 0.0 | 2.6 | 0.00 | 0.00 | 0.00 | 58 | 1016.4 |
| 20260509163058 | 64 | 0 | 0.0 | 0.0 | 0.00 | 0.00 | 0.00 | 58 | 1016.6 |
| 20260509162542 | 64 | 0 | 0.0 | 3.5 | 0.00 | 0.00 | 0.00 | 57 | 1016.5 |
| 20260509162045 | 64 | 0 | 0.0 | 3.5 | 0.00 | 0.00 | 0.00 | 58 | 1016.5 |
| 20260509161554 | 64 | 0 | 0.0 | 0.0 | 0.00 | 0.00 | 0.00 | 58 | 1016.5 |
| 20260509161041 | 64 | 0 | 0.0 | 0.0 | 0.00 | 0.00 | 0.00 | 56 | 1016.5 |
| 20260509160541 | 64 | 0 | 0.0 | 0.0 | 0.00 | 0.00 | 0.00 | 56 | 1016.5 |
| 20260509160051 | 64 | 0 | 0.0 | 0.0 | 0.00 | 0.00 | 0.00 | 57 | 1016.5 |
| 20260509155541 | 64 | 0 | 0.0 | 0.0 | 0.00 | 0.00 | 0.00 | 57 | 1016.6 |
| 20260509155044 | 64 | 0 | 0.0 | 0.0 | 0.00 | 0.00 | 0.00 | 56 | 1016.7 |
| 20260509154556 | 64 | 0 | 0.0 | 3.5 | 0.00 | 0.00 | 0.00 | 56 | 1016.7 |
| 20260509154042 | 64 | 0 | 0.0 | 5.2 | 0.00 | 0.00 | 0.00 | 57 | 1016.7 |
| 20260509153542 | 65 | 0 | 0.0 | 5.2 | 0.00 | 0.00 | 0.00 | 56 | 1016.7 |
| 20260509153052 | 65 | 53 | 0.0 | 7.0 | 0.00 | 0.00 | 0.00 | 55 | 1016.8 |
| 20260509152548 | 65 | 0 | 1.7 | 7.0 | 0.00 | 0.00 | 0.00 | 56 | 1016.8 |
| 20260509152042 | 66 | 0 | 0.0 | 5.2 | 0.00 | 0.00 | 0.00 | 57 | 1016.8 |
| 20260509151553 | 65 | 0 | 0.9 | 5.2 | 0.00 | 0.00 | 0.00 | 55 | 1016.8 |
| 20260509151041 | 65 | 0 | 0.0 | 0.0 | 0.00 | 0.00 | 0.00 | 54 | 1017.0 |
| 20260509150541 | 65 | 0 | 0.0 | 0.0 | 0.00 | 0.00 | 0.00 | 53 | 1017.0 |
| 20260509150105 | 65 | 0 | 0.0 | 0.0 | 0.00 | 0.00 | 0.00 | 53 | 1017.0 |
| 20260509145542 | 65 | 0 | 0.0 | 2.6 | 0.00 | 0.00 | 0.00 | 54 | 1017.1 |
| 20260509145044 | 65 | 0 | 0.0 | 7.8 | 0.00 | 0.00 | 0.00 | 55 | 1017.1 |
| 20260509144658 | 66 | 0 | 0.0 | 7.8 | 0.00 | 0.00 | 0.00 | 54 | 1017.1 |
| 20260509144047 | 66 | 0 | 0.9 | 6.1 | 0.00 | 0.00 | 0.00 | 54 | 1017.0 |
| 20260509143541 | 66 | 0 | 0.9 | 6.1 | 0.00 | 0.00 | 0.00 | 54 | 1017.1 |
| 20260509143052 | 66 | 0 | 0.0 | 2.6 | 0.00 | 0.00 | 0.00 | 54 | 1017.2 |
| 20260509142545 | 65 | 13 | 0.0 | 1.7 | 0.00 | 0.00 | 0.00 | 52 | 1017.3 |
| 20260509142041 | 65 | 0 | 0.0 | 4.3 | 0.00 | 0.00 | 0.00 | 51 | 1017.3 |
| 20260509141551 | 66 | 0 | 0.0 | 7.0 | 0.00 | 0.00 | 0.00 | 52 | 1017.3 |
| 20260509141041 | 65 | 0 | 0.0 | 7.0 | 0.00 | 0.00 | 0.00 | 55 | 1017.5 |
| 20260509140542 | 66 | 324 | 0.0 | 4.3 | 0.00 | 0.00 | 0.00 | 53 | 1017.5 |
| 20260509140057 | 66 | 0 | 0.0 | 4.3 | 0.00 | 0.00 | 0.00 | 53 | 1017.6 |
| 20260509135546 | 66 | 0 | 0.9 | 4.3 | 0.00 | 0.00 | 0.00 | 52 | 1017.6 |
| 20260509135046 | 66 | 0 | 0.0 | 7.0 | 0.00 | 0.00 | 0.00 | 53 | 1017.7 |
| 20260509134552 | 66 | 0 | 0.0 | 7.0 | 0.00 | 0.00 | 0.00 | 53 | 1017.7 |
| 20260509134046 | 66 | 352 | 0.0 | 4.3 | 0.00 | 0.00 | 0.00 | 55 | 1017.7 |
| 20260509133545 | 66 | 0 | 0.0 | 4.3 | 0.00 | 0.00 | 0.00 | 56 | 1017.8 |
| 20260509133053 | 65 | 0 | 0.0 | 4.3 | 0.00 | 0.00 | 0.00 | 54 | 1017.9 |
| 20260509132548 | 65 | 29 | 0.0 | 4.3 | 0.00 | 0.00 | 0.00 | 55 | 1018.0 |
| 20260509132047 | 65 | 0 | 0.0 | 5.2 | 0.00 | 0.00 | 0.00 | 54 | 1017.9 |
| 20260509131550 | 65 | 0 | 0.0 | 5.2 | 0.00 | 0.00 | 0.00 | 53 | 1018.1 |
| 20260509131045 | 65 | 13 | 0.0 | 5.2 | 0.00 | 0.00 | 0.00 | 55 | 1018.1 |
| 20260509130546 | 65 | 0 | 0.0 | 5.2 | 0.00 | 0.00 | 0.00 | 55 | 1018.1 |
| 20260509125546 | 65 | 0 | 0.0 | 4.3 | 0.00 | 0.00 | 0.00 | 59 | 1018.3 |
| 20260509125045 | 64 | 0 | 0.0 | 3.5 | 0.00 | 0.00 | 0.00 | 57 | 1018.2 |
| 20260509124604 | 64 | 317 | 0.0 | 1.7 | 0.00 | 0.00 | 0.00 | 57 | 1018.3 |
| 20260509124047 | 64 | 0 | 0.0 | 7.0 | 0.00 | 0.00 | 0.00 | 56 | 1018.2 |
| 20260509123547 | 64 | 0 | 0.0 | 7.0 | 0.00 | 0.00 | 0.00 | 54 | 1018.3 |
| 20260509123051 | 64 | 321 | 0.0 | 4.3 | 0.00 | 0.00 | 0.00 | 56 | 1018.4 |
| 20260509122550 | 64 | 0 | 0.0 | 4.3 | 0.00 | 0.00 | 0.00 | 56 | 1018.4 |
| 20260509122049 | 65 | 349 | 0.0 | 0.0 | 0.00 | 0.00 | 0.00 | 53 | 1018.4 |
| 20260509121552 | 65 | 0 | 0.0 | 0.9 | 0.00 | 0.00 | 0.00 | 53 | 1018.5 |
| 20260509121048 | 65 | 0 | 0.0 | 0.9 | 0.00 | 0.00 | 0.00 | 53 | 1018.6 |
| 20260509120547 | 65 | 0 | 0.0 | 0.9 | 0.00 | 0.00 | 0.00 | 53 | 1018.7 |
| 20260509120100 | 64 | 0 | 0.0 | 0.0 | 0.00 | 0.00 | 0.00 | 57 | 1018.7 |
| 20260509115546 | 64 | 0 | 0.0 | 0.0 | 0.00 | 0.00 | 0.00 | 56 | 1018.7 |
| 20260509115045 | 65 | 0 | 0.0 | 0.0 | 0.00 | 0.00 | 0.00 | 58 | 1018.7 |
| 20260509114554 | 65 | 0 | 0.0 | 0.0 | 0.00 | 0.00 | 0.00 | 58 | 1018.8 |
| 20260509114047 | 64 | 0 | 0.0 | 0.0 | 0.00 | 0.00 | 0.00 | 57 | 1018.7 |
| 20260509113550 | 64 | 0 | 0.0 | 0.9 | 0.00 | 0.00 | 0.00 | 56 | 1018.8 |
| 20260509113052 | 65 | 0 | 0.0 | 0.9 | 0.00 | 0.00 | 0.00 | 56 | 1018.7 |
| 20260509112546 | 66 | 0 | 0.0 | 2.6 | 0.00 | 0.00 | 0.00 | 58 | 1018.7 |
| 20260509112047 | 65 | 0 | 0.0 | 4.3 | 0.00 | 0.00 | 0.00 | 55 | 1018.9 |
| 20260509111552 | 65 | 360 | 0.0 | 4.3 | 0.00 | 0.00 | 0.00 | 57 | 1018.9 |
| 20260509111046 | 64 | 355 | 0.0 | 4.3 | 0.00 | 0.00 | 0.00 | 58 | 1018.9 |
| 20260509110546 | 64 | 0 | 0.0 | 0.9 | 0.00 | 0.00 | 0.00 | 59 | 1019.1 |
| 20260509110053 | 63 | 0 | 0.0 | 0.0 | 0.00 | 0.00 | 0.00 | 60 | 1019.2 |
| 20260509105545 | 62 | 0 | 0.0 | 0.0 | 0.00 | 0.00 | 0.00 | 62 | 1019.2 |
| 20260509105045 | 62 | 0 | 0.0 | 0.0 | 0.00 | 0.00 | 0.00 | 60 | 1019.3 |
| 20260509104552 | 62 | 0 | 0.0 | 0.9 | 0.00 | 0.00 | 0.00 | 60 | 1019.3 |
| 20260509104045 | 62 | 0 | 0.0 | 3.5 | 0.00 | 0.00 | 0.00 | 57 | 1019.4 |
| 20260509103549 | 64 | 0 | 0.0 | 3.5 | 0.00 | 0.00 | 0.00 | 57 | 1019.4 |
| 20260509103057 | 65 | 0 | 0.0 | 3.5 | 0.00 | 0.00 | 0.00 | 57 | 1019.3 |
| 20260509102545 | 65 | 0 | 0.0 | 3.5 | 0.00 | 0.00 | 0.00 | 59 | 1019.3 |
| 20260509102046 | 65 | 0 | 0.0 | 2.6 | 0.00 | 0.00 | 0.00 | 57 | 1019.3 |
| 20260509101555 | 65 | 0 | 0.0 | 3.5 | 0.00 | 0.00 | 0.00 | 58 | 1019.3 |
| 20260509101045 | 64 | 0 | 0.0 | 3.5 | 0.00 | 0.00 | 0.00 | 63 | 1019.4 |
| 20260509100548 | 63 | 0 | 0.0 | 0.0 | 0.00 | 0.00 | 0.00 | 61 | 1019.4 |
| 20260509100058 | 63 | 0 | 0.0 | 0.0 | 0.00 | 0.00 | 0.00 | 63 | 1019.4 |
| 20260509095548 | 61 | 0 | 0.0 | 0.0 | 0.00 | 0.00 | 0.00 | 63 | 1019.5 |
| 20260509095045 | 61 | 0 | 0.0 | 0.0 | 0.00 | 0.00 | 0.00 | 61 | 1019.5 |
| 20260509094555 | 62 | 0 | 0.0 | 0.0 | 0.00 | 0.00 | 0.00 | 61 | 1019.5 |
| 20260509094044 | 62 | 0 | 0.0 | 0.0 | 0.00 | 0.00 | 0.00 | 65 | 1019.5 |
| 20260509093547 | 62 | 0 | 0.0 | 0.0 | 0.00 | 0.00 | 0.00 | 62 | 1019.5 |
| 20260509093053 | 62 | 0 | 0.0 | 0.9 | 0.00 | 0.00 | 0.00 | 66 | 1019.6 |
| 20260509092545 | 62 | 0 | 0.0 | 0.9 | 0.00 | 0.00 | 0.00 | 64 | 1019.5 |
| 20260509092049 | 62 | 0 | 0.0 | 0.9 | 0.00 | 0.00 | 0.00 | 66 | 1019.5 |
| 20260509091553 | 62 | 0 | 0.0 | 1.7 | 0.00 | 0.00 | 0.00 | 65 | 1019.5 |
| 20260509091047 | 62 | 0 | 0.0 | 1.7 | 0.00 | 0.00 | 0.00 | 65 | 1019.5 |
| 20260509090545 | 62 | 0 | 0.0 | 5.2 | 0.00 | 0.00 | 0.00 | 64 | 1019.6 |
| 20260509090104 | 62 | 0 | 0.0 | 5.2 | 0.00 | 0.00 | 0.00 | 68 | 1019.6 |
| 20260509085544 | 61 | 0 | 0.0 | 0.9 | 0.00 | 0.00 | 0.00 | 66 | 1019.6 |
| 20260509085045 | 61 | 0 | 0.0 | 1.7 | 0.00 | 0.00 | 0.00 | 66 | 1019.7 |
| 20260509084554 | 61 | 0 | 0.0 | 1.7 | 0.00 | 0.00 | 0.00 | 70 | 1019.6 |
| 20260509084047 | 61 | 0 | 0.0 | 1.7 | 0.00 | 0.00 | 0.00 | 69 | 1019.6 |
| 20260509083546 | 60 | 0 | 0.0 | 2.6 | 0.00 | 0.00 | 0.00 | 70 | 1019.6 |
| 20260509083054 | 60 | 0 | 0.0 | 2.6 | 0.00 | 0.00 | 0.00 | 71 | 1019.5 |
| 20260509082546 | 60 | 37 | 0.0 | 2.6 | 0.00 | 0.00 | 0.00 | 70 | 1019.5 |
| 20260509082049 | 60 | 0 | 0.0 | 0.0 | 0.00 | 0.00 | 0.00 | 69 | 1019.6 |
| 20260509081551 | 60 | 0 | 0.0 | 0.0 | 0.00 | 0.00 | 0.00 | 68 | 1019.5 |
| 20260509081050 | 59 | 0 | 0.0 | 0.0 | 0.00 | 0.00 | 0.00 | 71 | 1019.5 |
| 20260509080546 | 59 | 0 | 0.0 | 0.0 | 0.00 | 0.00 | 0.00 | 72 | 1019.5 |
| 20260509080059 | 58 | 0 | 0.0 | 0.0 | 0.00 | 0.00 | 0.00 | 73 | 1019.5 |
| 20260509075545 | 58 | 0 | 0.0 | 0.0 | 0.00 | 0.00 | 0.00 | 73 | 1019.6 |
| 20260509075045 | 58 | 0 | 0.0 | 0.0 | 0.00 | 0.00 | 0.00 | 72 | 1019.7 |
| 20260509074549 | 58 | 0 | 0.0 | 0.0 | 0.00 | 0.00 | 0.00 | 73 | 1019.7 |
| 20260509074045 | 57 | 0 | 0.0 | 0.0 | 0.00 | 0.00 | 0.00 | 74 | 1019.6 |
| 20260509073546 | 57 | 0 | 0.0 | 0.0 | 0.00 | 0.00 | 0.00 | 75 | 1019.7 |
| 20260509073056 | 56 | 0 | 0.0 | 0.0 | 0.00 | 0.00 | 0.00 | 77 | 1019.7 |
| 20260509072546 | 56 | 0 | 0.0 | 0.0 | 0.00 | 0.00 | 0.00 | 77 | 1019.5 |
| 20260509072047 | 55 | 0 | 0.0 | 0.0 | 0.00 | 0.00 | 0.00 | 80 | 1019.6 |
| 20260509071600 | 55 | 0 | 0.0 | 0.0 | 0.00 | 0.00 | 0.00 | 81 | 1019.6 |
| 20260509071049 | 54 | 0 | 0.0 | 0.0 | 0.00 | 0.00 | 0.00 | 81 | 1019.8 |
| 20260509070546 | 54 | 0 | 0.0 | 0.0 | 0.00 | 0.00 | 0.00 | 82 | 1019.8 |
| 20260509070057 | 53 | 0 | 0.0 | 0.0 | 0.00 | 0.00 | 0.00 | 84 | 1019.8 |
| 20260509065545 | 53 | 0 | 0.0 | 0.0 | 0.00 | 0.00 | 0.00 | 87 | 1019.8 |
| 20260509065045 | 52 | 0 | 0.0 | 0.0 | 0.00 | 0.00 | 0.00 | 89 | 1019.8 |
| 20260509064604 | 52 | 0 | 0.0 | 0.0 | 0.00 | 0.00 | 0.00 | 91 | 1019.8 |
| 20260509064046 | 51 | 0 | 0.0 | 0.0 | 0.00 | 0.00 | 0.00 | 94 | 1019.8 |
| 20260509063545 | 50 | 0 | 0.0 | 0.0 | 0.00 | 0.00 | 0.00 | 95 | 1019.8 |
| 20260509063054 | 49 | 0 | 0.0 | 0.0 | 0.00 | 0.00 | 0.00 | 96 | 1019.7 |
| 20260509062547 | 48 | 0 | 0.0 | 0.0 | 0.00 | 0.00 | 0.00 | 96 | 1019.7 |
| 20260509062045 | 48 | 0 | 0.0 | 0.0 | 0.00 | 0.00 | 0.00 | 96 | 1019.7 |
| 20260509061553 | 47 | 0 | 0.0 | 0.0 | 0.00 | 0.00 | 0.00 | 96 | 1019.6 |
| 20260509061046 | 46 | 0 | 0.0 | 0.0 | 0.00 | 0.00 | 0.00 | 96 | 1019.6 |
| 20260509060547 | 46 | 0 | 0.0 | 0.0 | 0.00 | 0.00 | 0.00 | 96 | 1019.7 |
| 20260509060104 | 46 | 0 | 0.0 | 0.0 | 0.00 | 0.00 | 0.00 | 96 | 1019.8 |
| 20260509055547 | 45 | 0 | 0.0 | 0.0 | 0.00 | 0.00 | 0.00 | 96 | 1019.7 |
| 20260509055045 | 45 | 0 | 0.0 | 0.0 | 0.00 | 0.00 | 0.00 | 96 | 1019.6 |
| 20260509054604 | 44 | 0 | 0.0 | 0.0 | 0.00 | 0.00 | 0.00 | 96 | 1019.5 |
| 20260509054049 | 44 | 0 | 0.0 | 0.0 | 0.00 | 0.00 | 0.00 | 96 | 1019.4 |
| 20260509053546 | 43 | 0 | 0.0 | 0.0 | 0.00 | 0.00 | 0.00 | 96 | 1019.5 |
| 20260509053059 | 43 | 0 | 0.0 | 0.0 | 0.00 | 0.00 | 0.00 | 96 | 1019.4 |
| 20260509052545 | 43 | 0 | 0.0 | 0.0 | 0.00 | 0.00 | 0.00 | 96 | 1019.5 |
| 20260509052045 | 42 | 0 | 0.0 | 0.0 | 0.00 | 0.00 | 0.00 | 96 | 1019.5 |
| 20260509051553 | 42 | 0 | 0.0 | 0.0 | 0.00 | 0.00 | 0.00 | 96 | 1019.3 |
| 20260509051045 | 42 | 0 | 0.0 | 0.0 | 0.00 | 0.00 | 0.00 | 96 | 1019.4 |
| 20260509050548 | 42 | 0 | 0.0 | 0.0 | 0.00 | 0.00 | 0.00 | 96 | 1019.3 |
| 20260509050057 | 41 | 0 | 0.0 | 0.0 | 0.00 | 0.00 | 0.00 | 96 | 1019.5 |
| 20260509045545 | 41 | 0 | 0.0 | 0.0 | 0.00 | 0.00 | 0.00 | 96 | 1019.4 |
| 20260509045045 | 40 | 0 | 0.0 | 0.0 | 0.00 | 0.00 | 0.00 | 96 | 1019.4 |
| 20260509044552 | 40 | 0 | 0.0 | 0.0 | 0.00 | 0.00 | 0.00 | 95 | 1019.4 |
| 20260509044045 | 40 | 0 | 0.0 | 0.0 | 0.00 | 0.00 | 0.00 | 95 | 1019.3 |
| 20260509043545 | 40 | 0 | 0.0 | 0.0 | 0.00 | 0.00 | 0.00 | 95 | 1019.4 |
| 20260509043059 | 40 | 0 | 0.0 | 0.0 | 0.00 | 0.00 | 0.00 | 95 | 1019.3 |
| 20260509042546 | 40 | 0 | 0.0 | 0.0 | 0.00 | 0.00 | 0.00 | 95 | 1019.4 |
| 20260509042047 | 40 | 0 | 0.0 | 0.0 | 0.00 | 0.00 | 0.00 | 95 | 1019.3 |
| 20260509041600 | 40 | 0 | 0.0 | 0.0 | 0.00 | 0.00 | 0.00 | 95 | 1019.4 |
| 20260509041046 | 40 | 0 | 0.0 | 0.0 | 0.00 | 0.00 | 0.00 | 95 | 1019.5 |
| 20260509040545 | 40 | 0 | 0.0 | 0.0 | 0.00 | 0.00 | 0.00 | 95 | 1019.4 |
| 20260509040057 | 40 | 0 | 0.0 | 0.0 | 0.00 | 0.00 | 0.00 | 95 | 1019.4 |
| 20260509035545 | 40 | 0 | 0.0 | 0.0 | 0.00 | 0.00 | 0.00 | 95 | 1019.4 |
| 20260509035046 | 40 | 0 | 0.0 | 0.0 | 0.00 | 0.00 | 0.00 | 95 | 1019.5 |
| 20260509034604 | 40 | 0 | 0.0 | 0.0 | 0.00 | 0.00 | 0.00 | 95 | 1019.5 |
| 20260509034045 | 40 | 0 | 0.0 | 0.0 | 0.00 | 0.00 | 0.00 | 95 | 1019.5 |
| 20260509033542 | 40 | 0 | 0.0 | 0.0 | 0.00 | 0.00 | 0.00 | 95 | 1019.5 |
| 20260509033054 | 40 | 0 | 0.0 | 0.0 | 0.00 | 0.00 | 0.00 | 95 | 1019.6 |
| 20260509032545 | 40 | 0 | 0.0 | 0.0 | 0.00 | 0.00 | 0.00 | 95 | 1019.6 |
| 20260509032044 | 40 | 0 | 0.0 | 0.0 | 0.00 | 0.00 | 0.00 | 95 | 1019.6 |
| 20260509031602 | 40 | 0 | 0.0 | 0.0 | 0.00 | 0.00 | 0.00 | 95 | 1019.7 |
| 20260509031042 | 40 | 0 | 0.0 | 0.0 | 0.00 | 0.00 | 0.00 | 95 | 1019.8 |
| 20260509030546 | 40 | 0 | 0.0 | 0.0 | 0.00 | 0.00 | 0.00 | 95 | 1019.7 |
| 20260509030056 | 40 | 0 | 0.0 | 0.0 | 0.00 | 0.00 | 0.00 | 95 | 1019.7 |
| 20260509025549 | 40 | 0 | 0.0 | 0.0 | 0.00 | 0.00 | 0.00 | 95 | 1019.7 |
| 20260509025046 | 40 | 0 | 0.0 | 0.0 | 0.00 | 0.00 | 0.00 | 95 | 1019.7 |
| 20260509024554 | 41 | 0 | 0.0 | 0.0 | 0.00 | 0.00 | 0.00 | 95 | 1019.7 |
| 20260509024047 | 41 | 0 | 0.0 | 0.0 | 0.00 | 0.00 | 0.00 | 95 | 1019.8 |
| 20260509023544 | 41 | 0 | 0.0 | 0.0 | 0.00 | 0.00 | 0.00 | 95 | 1019.8 |
| 20260509023104 | 41 | 0 | 0.0 | 0.0 | 0.00 | 0.00 | 0.00 | 95 | 1019.7 |
| 20260509022544 | 41 | 0 | 0.0 | 0.0 | 0.00 | 0.00 | 0.00 | 95 | 1019.6 |
| 20260509022046 | 41 | 0 | 0.0 | 0.0 | 0.00 | 0.00 | 0.00 | 95 | 1019.6 |
| 20260509021555 | 41 | 0 | 0.0 | 0.0 | 0.00 | 0.00 | 0.00 | 95 | 1019.7 |
| 20260509021047 | 41 | 0 | 0.0 | 0.0 | 0.00 | 0.00 | 0.00 | 95 | 1019.7 |
| 20260509020547 | 41 | 0 | 0.0 | 0.0 | 0.00 | 0.00 | 0.00 | 95 | 1019.6 |
| 20260509020055 | 41 | 0 | 0.0 | 0.0 | 0.00 | 0.00 | 0.00 | 95 | 1019.7 |
| 20260509015546 | 41 | 0 | 0.0 | 0.0 | 0.00 | 0.00 | 0.00 | 95 | 1019.7 |
| 20260509015044 | 41 | 0 | 0.0 | 0.0 | 0.00 | 0.00 | 0.00 | 95 | 1019.8 |
| 20260509014550 | 41 | 0 | 0.0 | 0.0 | 0.00 | 0.00 | 0.00 | 95 | 1019.8 |
| 20260509014043 | 42 | 0 | 0.0 | 0.0 | 0.00 | 0.00 | 0.00 | 94 | 1019.8 |
| 20260509013545 | 42 | 0 | 0.0 | 0.0 | 0.00 | 0.00 | 0.00 | 94 | 1019.8 |
| 20260509013108 | 42 | 0 | 0.0 | 0.0 | 0.00 | 0.00 | 0.00 | 94 | 1019.8 |
| 20260509012544 | 42 | 0 | 0.0 | 0.0 | 0.00 | 0.00 | 0.00 | 95 | 1019.8 |
| 20260509012042 | 42 | 0 | 0.0 | 0.0 | 0.00 | 0.00 | 0.00 | 94 | 1019.9 |
| 20260509011550 | 42 | 0 | 0.0 | 0.0 | 0.00 | 0.00 | 0.00 | 94 | 1019.8 |
| 20260509011046 | 42 | 0 | 0.0 | 0.0 | 0.00 | 0.00 | 0.00 | 94 | 1019.9 |
| 20260509010545 | 42 | 0 | 0.0 | 0.0 | 0.00 | 0.00 | 0.00 | 94 | 1019.9 |
| 20260509010050 | 42 | 0 | 0.0 | 0.0 | 0.00 | 0.00 | 0.00 | 94 | 1019.8 |
| 20260509005543 | 42 | 0 | 0.0 | 0.0 | 0.00 | 0.00 | 0.00 | 94 | 1019.9 |
| 20260509005043 | 42 | 0 | 0.0 | 0.0 | 0.00 | 0.00 | 0.00 | 94 | 1019.8 |
| 20260509004553 | 42 | 0 | 0.0 | 0.0 | 0.00 | 0.00 | 0.00 | 94 | 1019.7 |
| 20260509004043 | 43 | 0 | 0.0 | 0.0 | 0.00 | 0.00 | 0.00 | 94 | 1019.8 |
| 20260509003543 | 43 | 0 | 0.0 | 0.0 | 0.00 | 0.00 | 0.00 | 94 | 1019.8 |
| 20260509003058 | 43 | 0 | 0.0 | 0.0 | 0.00 | 0.00 | 0.00 | 94 | 1019.8 |
| 20260509002545 | 43 | 0 | 0.0 | 0.0 | 0.00 | 0.00 | 0.00 | 94 | 1019.9 |
| 20260509002045 | 43 | 0 | 0.0 | 0.0 | 0.00 | 0.00 | 0.00 | 94 | 1019.8 |
| 20260509001552 | 43 | 0 | 0.0 | 0.0 | 0.00 | 0.00 | 0.00 | 94 | 1019.8 |
| 20260509001046 | 44 | 0 | 0.0 | 0.0 | 0.00 | 0.00 | 0.00 | 94 | 1019.9 |
| 20260509000542 | 43 | 0 | 0.0 | 0.0 | 0.00 | 0.00 | 0.00 | 94 | 1019.8 |
| 20260509000056 | 43 | 0 | 0.0 | 0.0 | 0.00 | 0.00 | 0.00 | 94 | 1019.8 |
| 20260508235543 | 44 | 0 | 0.0 | 0.0 | 0.00 | 0.00 | 0.00 | 94 | 1019.9 |
| 20260508235042 | 44 | 0 | 0.0 | 0.0 | 0.00 | 0.00 | 0.00 | 94 | 1019.9 |
| 20260508234549 | 44 | 0 | 0.0 | 0.0 | 0.00 | 0.00 | 0.00 | 94 | 1019.9 |
| 20260508234042 | 44 | 0 | 0.0 | 0.0 | 0.00 | 0.00 | 0.00 | 94 | 1019.8 |